Regional Weather Roundup
Issued by NWS Wakefield, VA

Home | Current Version | Previous Version | Graphics & Text | Print | Product List | Glossary On
Versions: 1 2 3 4 5 6 7 8 9 10 11 12 13 14 15 16 17 18 19 20 21 22 23 24 25 26 27 28 29 30 31 32 33 34 35 36 37 38 39 40 41 42 43 44 45 46 47 48 49 50
000
ASUS41 KAKQ 210610
RWRAKQ

REGIONAL WEATHER ROUNDUP
NATIONAL WEATHER SERVICE WAKEFIELD VA
200 AM EDT TUE OCT 21 2014

Note: "fair" indicates few or no clouds below 12,000 feet with no
significant weather and/or obstructions to visibility. * = Denotes
station may not report precipitation (e.g., rain,snow,etc.),
thunder or fog.

VAZ042-051-052>054-056-210700-
NORTHERN VIRGINIA

CITY           SKY/WX    TMP DP  RH WIND       PRES   REMARKS
WASH NATIONAL  CLOUDY    59  48  67 S7        29.91F
DULLES         MOCLDY    54  47  77 S6        29.90F
FORT BELVOIR   CLOUDY    53  51  96 CALM      29.91F
QUANTICO       MOCLDY    57  48  72 SW6       29.91F
FREDERICKSBRG* MOCLDY    56  48  75 S5        29.90F
STAFFORD*      PTCLDY    53  53 100 CALM      29.94F
WARRENTON      MOCLDY    52  52  99 S3        29.89F
CULPEPER*      PTCLDY    52  48  87 CALM      29.90F
MANASSAS*      CLOUDY    52  52 100 S3        29.90F
LEESBURG*      CLOUDY    54  52  94 CALM      29.90F
WINCHESTER     CLOUDY    52  46  82 CALM      29.89F
FRONT ROYAL*   CLOUDY    50  48  93 CALM      29.88F
LURAY*         CLOUDY    54  54 100 E3        29.89F
$$

VAZ048-049-060>072-079>083-210700-
CENTRAL AND SOUTH CENTRAL VIRGINIA...AND NORTH CENTRAL NORTH CAROLINA

CITY           SKY/WX    TMP DP  RH WIND       PRES   REMARKS
RICHMOND       CLOUDY    58  46  64 S7        29.93F
CHESTERFIELD*  CLOUDY   N/A N/A N/A S5        29.94F
PETERSBURG*    CLOUDY    53  46  78 SW3       29.95S
HANOVER        CLOUDY    57  47  69 S6        29.94F
TAPPAHANNOCK*  CLOUDY    55  46  70 S3        29.93F
CHARLOTTSVILLE MOCLDY    53  49  86 CALM      29.90F
ORANGE*        PTCLDY    54  48  82 CALM      29.92F
LOUISA*        PTCLDY    54  46  76 CALM      29.90F
FARMVILLE*     PTCLDY    52  48  87 CALM      29.91F
CREWE*         CLOUDY    55  48  79 CALM      29.93F
FORT PICKETT*  CLOUDY    53  48  81 S5        29.94F
LUNENBURG*     CLOUDY    55  49  82 S3        29.94S
SOUTH HILL*    CLOUDY    55  52  88 CALM      30.00F
LAWRENCEVILLE* CLOUDY    55  49  81 CALM      29.94F
ROANOKE RAPIDS CLOUDY    52  50  93 CALM      29.96S
RALEIGH        CLOUDY    57  50  77 SW3       29.97F
$$

VAZ088>098-210700-
SOUTHEAST VIRGINIA

CITY           SKY/WX    TMP DP  RH WIND       PRES   REMARKS
NORFOLK        MOCLDY    57  53  86 S5        29.95F
VIRGINIA BEACH MOCLDY    57  51  80 W3        29.95F
NORFOLK NAVAL  CLOUDY    63  55  75 S7        29.96F
WEST POINT*    CLOUDY    60  50  68 CALM      29.95F
NEWPORT NEWS   CLOUDY    62  55  77 SW9       29.95F
LANGLEY AFB    CLOUDY    61  57  87 S12       29.95F
FORT EUSTIS    CLOUDY    60  60  99 S6        29.93F
WILLIAMSBURG*  CLOUDY    61  55  82 CALM      29.95F
HR EXEC AP*    MOCLDY    52  48  87 SW3       29.98S
FRANKLIN*      CLOUDY    55  54  94 S5        29.96F
WAKEFIELD      CLOUDY    57  52  83 S3        29.95F
$$

VAZ020-022-025-037-045-210700-
WEST CENTRAL AND SOUTHWEST VIRGINIA

CITY           SKY/WX    TMP DP  RH WIND       PRES   REMARKS
STAUNTON*      CLOUDY    54  47  78 SW5       29.93S
HOT SPRINGS VA CLOUDY    47  43  84 W12       29.92F
LYNCHBURG      PTCLDY    51  49  92 CALM      29.94F
DANVILLE       PTCLDY    56  49  77 S5        29.95F
SOUTH BOSTON*  NOT AVBL
MARTINSVILLE   PTCLDY    54  53  97 CALM      29.97F
ROANOKE        LGT RAIN  57  45  64 SW6       29.95F
BLACKSBURG     MOCLDY    50  50 100 CALM      29.98F
DUBLIN*        MOCLDY    52  48  87 W3        29.98S
MARION*        MOCLDY    51  48  89 W6        30.01S
HILLSVILLE*    PTCLDY    52  46  78 W9        29.97F
RICHLANDS*     PTCLDY    55  48  79 SW7       29.98F
WISE*          PTCLDY    46  46 100 SW3       30.00S
ABINGDON*      CLEAR     53  50  90 W3        29.99S
$$

MDZ021>025-VAZ099-100-210700-
SOUTHERN MARYLAND AND THE DELMARVA PENINSULA

CITY           SKY/WX    TMP DP  RH WIND       PRES   REMARKS
PATUXENT RIVER CLOUDY    57  47  69 SW7       29.93F
BAY BRIDGE APT   N/A     59  45  58 S3        29.92
LEONARDTOWN    CLOUDY    55  45  67 SW5       29.95F
DOVER          CLOUDY    54  47  77 SE6       29.90F
GEORGETOWN     CLOUDY    53  45  74 CALM      29.94F
EASTON         CLOUDY    56  51  85 CALM      29.95F
CAMBRIDGE      CLOUDY    54  50  87 CALM      29.92F
SALISBURY      CLOUDY    58  47  66 CALM      29.94F
OCEAN CITY     CLOUDY    53  49  86 SW5       29.94F
WALLOPS ISLAND CLOUDY    61  54  77 SW8       29.95F
ACCOMACK*      CLOUDY    55  52  88 S6        29.94F
$$

NCZ012>017-030>032-210700-
EASTERN NORTH CAROLINA

CITY           SKY/WX    TMP DP  RH WIND       PRES   REMARKS
ELIZABETH CITY PTCLDY    58  55  90 CALM      29.96F
AHOSKIE*       CLOUDY    53  51  94 CALM      29.96F
EDENTON*       PTCLDY    55  53  91 CALM      29.96F
CURRITUCK*     PTCLDY    56  54  92 CALM      29.97F
KILL DEVIL HLS MOCLDY    64  61  91 CALM      29.95F
MANTEO         CLOUDY    60  59  96 CALM      29.96F
CAPE HATTERAS  CLOUDY    72  58  61 S14       29.96F
TARBORO*       MOCLDY    55  54  95 CALM      29.97F
GOLDSBORO      MOCLDY    57  57  98 CALM      29.95F
WASHINGTON     CLEAR     54  53  97 CALM      29.96F
GREENVILLE     MOCLDY    54  54 100 CALM      29.98F
NEW BERN       PTCLDY    56  53  90 CALM      29.97F
WILMINGTON     PTCLDY    56  54  93 CALM      29.97S
$$

VAZ048-210700-
ELSEWHERE

CITY           SKY/WX    TMP DP  RH WIND       PRES   REMARKS
HARRISBURG PA  CLOUDY    53  51  93 CALM      29.88F
BALTIMORE      LGT RAIN  54  47  77 CALM      29.90F
ANNAPOLIS      LGT RAIN  57  46  66 SE3       29.90F
ANDREWS AFB    CLOUDY    55  48  77 S8        29.89F
WILMINGTON DE  CLOUDY    54  45  71 CALM      29.93F
PHILADELPHIA   CLOUDY    56  46  69 S5        29.93F
WILDWOOD NJ*   CLOUDY    54  45  71 CALM      29.95F
ATLANTIC CITY  CLOUDY    53  46  77 CALM      29.94F
HENDERSON NC   CLOUDY    54  48  81 S5        29.96F
GREENSBORO     MOCLDY    57  49  74 SW5       29.95F
ROCKY MOUNT    MOCLDY    55  53  93 CALM      29.97S
FAYETTEVILLE   MOCLDY    58  56  93 CALM      29.97S
CHARLOTTE      PTCLDY    57  51  80 SW5       29.97F
$$

VAZ100-210700-
MARINE

STATION/POSITION TIME  TEMP    WIND        PRES    WAVE   SWELL
                       AIR SEA DIR/SP/G            HT/PER HT/PER
                 (UTC) (F)     (DEG/KT/KT) (MB)    (FT/S) (FT/S)
44066 TX TWR #4  0600   65 66  210/ 16/ 19 1014.5F   5/ 6   2/10
CAPE MAY NJ      0600   61 67  190/  5/  9 1013.4F
LEWES DE         0600   58 62  210/  4/  6 1013.5F
15NM E FENWICK I 0600   67 66  220/ 16/ 19 1013.7F   4/ 6   2/11
OCEAN-CITY-INLET 0600   60 64  230/  5/  6 1013.5F
WACHAPREAGUE VA  0600   60 61  220/  3/  4 1014.1F
THOMAS POINT MD  0600   59 64  190/ 10/ 11 1013.9F
GOOSES REEF MD   0600   62     220/ 10/ 12 1013.7F
COVE POINT MD    0600   59     230/ 10/ 12 1013.3F
SOLOMONS ISLAND  0600      66                N/A
BISHOPS HEAD MD  0600   62 59  190/  6/  7 1012.9F
PINEY POINT MD   0600          270/  6/  9   N/A
POTOMAC MD       0600   62     210/ 10/ 14 1012.7F
CAMBRIDGE MD     0600   56 63  200/  2/  3 1013.1R
LEWISETTA VA     0600   59 62  250/  6/  8 1013.2R
RAPPAHANNOCK LGT 0600          200/ 16/ 18 1014.2F
STINGRAY PT      0600   63     210/ 10/ 12 1014.4F
YORK RVR RNG VA  0600   62     220/ 12/ 13 1013.3F
YORKTOWN VA      0600   61 67  210/  9/ 10 1013.5F
JAMESTOWN VA     0600   59     230/  6/ 10   N/A
DOMINION TERM VA 0600   60     220/  8/ 10 1014.2F
KIPTOPEKE VA     0600      69  230/ 13/ 16   N/A
CHES BAY BRIDGE  0600   62 67  190/ 12/ 14 1013.5F
CHESAPEAKE LGHT  0500   67     220/ 17/ 18 1015.1F
WILLOUBY STN VA  0600   62     210/ 12/ 13 1012.7F
S CRANEY ISL VA  0600          190/  6/  9 1014.0F
CAPE HENRY BUOY  0600      68                N/A     3/10   2/12
1ST LANDING BUOY 0600   64     210/ 12/ 16 1014.0F
CAPE CHARLES BUO 0600      68                N/A     3/ 5   2/11
64NM E OF VA BCH 0600   71 69  220/ 12/ 14 1014.1F   4/ 5   2/10
DUCK PIER NC     0600   65 69  190/  5/  6 1013.8F
44100 DUCK FRF   0600      71                N/A     3/11   2/11
44056 DUCK FRF   0600                        N/A     2/13   2/13
OREGON INLET NC  0600   67 67  170/  6/  8 1014.4F
HATTERAS NC      0600   73 71  170/ 10/ 15 1014.7F
DIAMOND SHLS NC  0600   73     170/ 16/ 19 1014.6F   4/11   2/11
CAPE LOOKOUT NC  0500   66      60/  5/  6 1014.8F
$$



USA.gov is the U.S. government's official web portal to all federal, state and local government web resources and services.